Imperial, NE

9:50 PM MDT on May 24, 2017 (GMT -0600)
Imperial Municipal

Weather History for KIML - June, 2012

Change the Weather History Date:

Sunday, June 24, 2012

  Actual Average Record
Temperature  
Mean Temperature 84 °F 73 °F  
Max Temperature 103 °F 87 °F 105 °F (1954)
Min Temperature 64 °F 58 °F 42 °F (1928)
Degree Days  
Heating Degree Days 0 1  
Month to date heating degree days 2 34  
Since 1 June heating degree days 2 34  
Cooling Degree Days 19 8  
Month to date cooling degree days 258 131  
Year to date cooling degree days 335 175  
Since 1 June cooling degree days 258 131  
Growing Degree Days 34 (Base 50)    
Moisture  
Dew Point 66 °F    
Average Humidity 63    
Maximum Humidity 100    
Minimum Humidity 25    
Precipitation  
Precipitation 0.00 in 0.10 in 1.80 in (1899)
Sea Level Pressure  
Sea Level Pressure 29.83 in    
Wind  
Wind Speed 8 mph (East)    
Max Wind Speed 15 mph    
Max Gust Speed 21 mph    
Visibility 6 miles    
Events Fog    
T = Trace of Precipitation, MM = Missing Value Source: NWS Daily Summary

Daily Weather History Graph

Daily Weather History Graph

Search for Another Location

Airport or City:

Trip Planner

Search our weather history database for the weather conditions in past years. The results will help you decide how hot, cold, wet, or windy it might be!

Date:

Astronomy

Jun. 24, 2012 Rise Set
Actual Time 5:17 AM MDT 8:20 PM MDT
Civil Twilight 4:43 AM MDT 8:54 PM MDT
Nautical Twilight 4:01 AM MDT 9:36 PM MDT
Astronomical Twilight 3:11 AM MDT 10:26 PM MDT
Moon 10:26 AM MDT (6/24) 11:18 PM MDT (6/24)
Length of Visible Light 16h 10m
Length of Day
15h 03m
Waxing Crescent, 25% of the Moon is Illuminated
Jun 24
Waxing Crescent
Jun 26
First Quarter
Jul 3
Full
Jul 10
Last Quarter
Jul 18
New

Hourly Weather History & Observations

Time (MDT) Temp. Heat Index Dew Point Humidity Pressure Visibility Wind Dir Wind Speed Gust Speed Precip Events Conditions
12:53 AM 71.1 °F - 69.1 °F 93% 29.72 in 5.0 mi ESE 8.1 mph - N/A   Clear
1:53 AM 69.1 °F - 68.0 °F 96% 29.72 in 4.0 mi ESE 5.8 mph - N/A   Clear
2:26 AM 66.2 °F - 66.2 °F 100% 29.84 in 2.0 mi SE 3.5 mph - N/A   Clear
2:28 AM 66.2 °F - 66.2 °F 100% 29.84 in 1.8 mi SE 4.6 mph - N/A   Partly Cloudy
2:38 AM 68.0 °F - 66.2 °F 94% 29.84 in 1.0 mi SE 4.6 mph - N/A   Mist
2:46 AM 69.8 °F - 68.0 °F 94% 29.83 in 0.2 mi ESE 5.8 mph - N/A Fog Fog
2:53 AM 69.1 °F - 68.0 °F 96% 29.71 in 0.2 mi SE 5.8 mph - N/A Fog Fog
3:53 AM 68.0 °F - 68.0 °F 100% 29.71 in 0.2 mi Calm Calm - N/A Fog Fog
4:53 AM 66.0 °F - 66.0 °F 100% 29.73 in 0.2 mi Calm Calm - N/A Fog Fog
5:53 AM 66.0 °F - 64.9 °F 96% 29.77 in 0.2 mi NNE 9.2 mph - N/A Fog Fog
6:53 AM 66.0 °F - 66.0 °F 100% 29.81 in 0.2 mi NNE 10.4 mph - 0.01 in Fog Fog
7:15 AM 66.2 °F - 66.2 °F 100% 29.93 in 0.8 mi NNE 10.4 mph - N/A   Overcast
7:25 AM 66.2 °F - 66.2 °F 100% 29.93 in 1.5 mi NNE 10.4 mph - N/A   Overcast
7:33 AM 68.0 °F - 66.2 °F 94% 29.94 in 2.0 mi NE 12.7 mph - N/A   Overcast
7:46 AM 68.0 °F - 66.2 °F 94% 29.94 in 3.0 mi NNE 9.2 mph - N/A   Overcast
7:53 AM 68.0 °F - 66.9 °F 96% 29.84 in 3.0 mi NNE 11.5 mph - N/A   Overcast
8:53 AM 73.0 °F - 66.9 °F 81% 29.86 in 6.0 mi NNE 10.4 mph - N/A   Haze
9:27 AM 75.2 °F - 66.2 °F 73% 29.97 in 9.0 mi NNE 9.2 mph - N/A   Scattered Clouds
9:53 AM 79.0 °F - 66.0 °F 64% 29.86 in 10.0 mi NNE 10.4 mph - N/A   Clear
10:53 AM 82.9 °F 84.6 °F 64.9 °F 54% 29.86 in 10.0 mi ENE 5.8 mph - N/A   Clear
11:53 AM 87.1 °F 88.3 °F 64.0 °F 46% 29.85 in 10.0 mi ENE 5.8 mph - N/A   Clear
12:53 PM 91.9 °F 93.3 °F 64.0 °F 39% 29.83 in 10.0 mi SE 8.1 mph - N/A   Clear
1:53 PM 96.1 °F 96.4 °F 61.0 °F 31% 29.82 in 10.0 mi ESE 9.2 mph - N/A   Clear
2:53 PM 100.0 °F 100.2 °F 59.0 °F 26% 29.81 in 10.0 mi East 9.2 mph - N/A   Clear
3:53 PM 102.0 °F 102.2 °F 59.0 °F 24% 29.79 in 10.0 mi East 6.9 mph - N/A   Clear
4:53 PM 100.0 °F 101.8 °F 63.0 °F 29% 29.78 in 10.0 mi East 10.4 mph - N/A   Clear
5:53 PM 99.0 °F 100.5 °F 62.1 °F 30% 29.77 in 10.0 mi East 11.5 mph - N/A   Clear
6:53 PM 95.0 °F 96.0 °F 63.0 °F 34% 29.79 in 10.0 mi East 10.4 mph - N/A   Clear
7:53 PM 88.0 °F 90.7 °F 66.9 °F 49% 29.82 in 10.0 mi East 12.7 mph - N/A   Clear
8:53 PM 82.0 °F 85.5 °F 69.1 °F 65% 29.86 in 10.0 mi East 11.5 mph - N/A   Clear
9:53 PM 79.0 °F - 71.1 °F 77% 29.88 in 10.0 mi East 12.7 mph - N/A   Clear
10:53 PM 75.9 °F - 70.0 °F 82% 29.89 in 10.0 mi East 10.4 mph - N/A   Clear
11:53 PM 73.0 °F - 70.0 °F 90% 29.88 in 8.0 mi ESE 8.1 mph - N/A   Clear